North Bend, OR

3:27 AM PST on February 18, 2018 (GMT -0800)
North Bend Municipal

Weather History for KOTH - October, 2012

Change the Weather History Date:

Monday, October 8, 2012

  Actual Average Record
Temperature  
Mean Temperature 56 °F 54 °F  
Max Temperature 63 °F 62 °F 82 °F (1937)
Min Temperature 48 °F 47 °F 34 °F (1907)
Degree Days  
Heating Degree Days 9 11  
Month to date heating degree days 85 81  
Since 1 July heating degree days 684 689  
Cooling Degree Days 0 0  
Month to date cooling degree days 0 0  
Year to date cooling degree days 0 2  
Growing Degree Days 5 (Base 50)    
Moisture  
Dew Point 49 °F    
Average Humidity 88    
Maximum Humidity 100    
Minimum Humidity 72    
Precipitation  
Precipitation 0.00 in 0.11 in 1.16 in (1984)
Month to date precipitation 0.00 0.73  
Year to date precipitation 28.80 39.55  
Sea Level Pressure  
Sea Level Pressure 30.04 in    
Wind  
Wind Speed 6 mph (South)    
Max Wind Speed 14 mph    
Max Gust Speed -    
Visibility 10 miles    
Events      
T = Trace of Precipitation, MM = Missing Value Source: NWS Daily Summary

Daily Weather History Graph

Daily Weather History Graph

Search for Another Location

Airport or City:

Trip Planner

Search our weather history database for the weather conditions in past years. The results will help you decide how hot, cold, wet, or windy it might be!

Date:

Astronomy

Oct. 08, 2012 Rise Set
Actual Time 7:23 AM PDT 6:44 PM PDT
Civil Twilight 6:54 AM PDT 7:13 PM PDT
Nautical Twilight 6:21 AM PDT 7:46 PM PDT
Astronomical Twilight 5:48 AM PDT 8:19 PM PDT
Moon No Moon Rise 2:48 PM PDT (10/8)
Length of Visible Light 12h 18m
Length of Day
11h 21m
Last Quarter, 45% of the Moon is Illuminated
Oct 8
Last Quarter
Oct 15
New
Oct 21
First Quarter
Oct 29
Full
Nov 6
Last Quarter

Hourly Weather History & Observations

Time (PDT) Temp. Dew Point Humidity Pressure Visibility Wind Dir Wind Speed Gust Speed Precip Events Conditions
12:15 AM 48.2 °F 46.4 °F 93% 30.01 in 10.0 mi WSW 5.8 mph - N/A   Overcast
12:35 AM 48.2 °F 46.4 °F 93% 30.01 in 10.0 mi WSW 5.8 mph - N/A   Overcast
12:55 AM 48.2 °F 48.2 °F 100% 30.01 in 10.0 mi SSW 5.8 mph - N/A   Overcast
1:15 AM 48.2 °F 48.2 °F 100% 30.01 in 10.0 mi SSW 5.8 mph - N/A   Overcast
1:35 AM 48.2 °F 46.4 °F 93% 30.01 in 10.0 mi South 4.6 mph - N/A   Overcast
1:55 AM 48.2 °F 48.2 °F 100% 30.02 in 10.0 mi SSW 3.5 mph - N/A   Overcast
2:15 AM 48.2 °F 46.4 °F 93% 30.02 in 10.0 mi SSW 3.5 mph - N/A   Overcast
2:35 AM 48.2 °F 46.4 °F 93% 30.02 in 10.0 mi SSW 4.6 mph - N/A   Overcast
2:55 AM 48.2 °F 46.4 °F 93% 30.02 in 10.0 mi SW 5.8 mph - N/A   Overcast
3:15 AM 48.2 °F 46.4 °F 93% 30.02 in 10.0 mi Calm Calm - N/A   Overcast
3:35 AM 48.2 °F 46.4 °F 93% 30.02 in 10.0 mi Calm Calm - N/A   Overcast
3:55 AM 48.2 °F 46.4 °F 93% 30.02 in 10.0 mi SW 3.5 mph - N/A   Overcast
4:15 AM 48.2 °F 46.4 °F 93% 30.02 in 10.0 mi SSW 3.5 mph - N/A   Overcast
4:35 AM 48.2 °F 46.4 °F 93% 30.02 in 10.0 mi SE 4.6 mph - N/A   Overcast
4:55 AM 48.2 °F 46.4 °F 93% 30.03 in 10.0 mi SE 3.5 mph - N/A   Overcast
5:15 AM 48.2 °F 46.4 °F 93% 30.03 in 10.0 mi SE 3.5 mph - N/A   Overcast
5:35 AM 48.2 °F 46.4 °F 93% 30.03 in 10.0 mi SE 3.5 mph - N/A   Overcast
5:55 AM 48.2 °F 46.4 °F 93% 30.03 in 10.0 mi Calm Calm - N/A   Overcast
6:15 AM 48.2 °F 46.4 °F 93% 30.03 in 10.0 mi Calm Calm - N/A   Overcast
6:35 AM 48.2 °F 46.4 °F 93% 30.03 in 10.0 mi SSE 3.5 mph - N/A   Overcast
6:55 AM 48.2 °F 46.4 °F 93% 30.04 in 10.0 mi SSE 4.6 mph - N/A   Overcast
7:15 AM 48.2 °F 46.4 °F 93% 30.04 in 10.0 mi SSE 6.9 mph - N/A   Overcast
7:35 AM 48.2 °F 46.4 °F 93% 30.04 in 10.0 mi SSE 5.8 mph - N/A   Overcast
7:55 AM 48.2 °F 46.4 °F 93% 30.04 in 5.0 mi SSE 5.8 mph - N/A   Overcast
8:15 AM 48.2 °F 46.4 °F 93% 30.04 in 7.0 mi SE 5.8 mph - N/A   Overcast
8:35 AM 48.2 °F 46.4 °F 93% 30.04 in 7.0 mi SE 8.1 mph - N/A   Overcast
8:55 AM 48.2 °F 46.4 °F 93% 30.04 in 7.0 mi SE 9.2 mph - N/A   Mostly Cloudy
9:15 AM 48.2 °F 46.4 °F 93% 30.04 in 10.0 mi SE 11.5 mph - N/A   Mostly Cloudy
9:35 AM 48.2 °F 46.4 °F 93% 30.04 in 10.0 mi SE 10.4 mph - N/A   Mostly Cloudy
9:55 AM 51.8 °F 46.4 °F 82% 30.04 in 10.0 mi SSE 10.4 mph - N/A   Scattered Clouds
10:15 AM 51.8 °F 48.2 °F 88% 30.04 in 10.0 mi SE 12.7 mph - N/A   Clear
10:35 AM 51.8 °F 48.2 °F 88% 30.04 in 10.0 mi SE 10.4 mph - N/A   Scattered Clouds
10:55 AM 53.6 °F 48.2 °F 82% 30.04 in 10.0 mi ESE 9.2 mph - N/A   Scattered Clouds
11:15 AM 55.4 °F 48.2 °F 77% 30.05 in 10.0 mi ESE 5.8 mph - N/A   Clear
11:35 AM 55.4 °F 48.2 °F 77% 30.05 in 10.0 mi ESE 6.9 mph - N/A   Clear
11:55 AM 57.2 °F 48.2 °F 72% 30.05 in 10.0 mi NNW 3.5 mph - N/A   Clear
12:15 PM 57.2 °F 48.2 °F 72% 30.04 in 10.0 mi North 3.5 mph - N/A   Clear
12:35 PM 57.2 °F 48.2 °F 72% 30.04 in 10.0 mi Calm Calm - N/A   Clear
12:55 PM 59.0 °F 50.0 °F 72% 30.04 in 10.0 mi WSW 4.6 mph - N/A   Clear
1:15 PM 60.8 °F 48.2 °F 63% 30.03 in 10.0 mi West 8.1 mph - N/A   Clear
1:35 PM 62.6 °F 51.8 °F 68% 30.03 in 10.0 mi West 10.4 mph - N/A   Clear
1:55 PM 60.8 °F 51.8 °F 72% 30.03 in 10.0 mi West 11.5 mph - N/A   Clear
2:15 PM 60.8 °F 51.8 °F 72% 30.03 in 10.0 mi West 13.8 mph - N/A   Clear
2:35 PM 60.8 °F 51.8 °F 72% 30.03 in 10.0 mi West 15.0 mph - N/A   Clear
2:55 PM 59.0 °F 51.8 °F 77% 30.03 in 10.0 mi WSW 13.8 mph - N/A   Clear
3:15 PM 59.0 °F 51.8 °F 77% 30.04 in 10.0 mi West 15.0 mph - N/A   Clear
3:35 PM 57.2 °F 51.8 °F 82% 30.05 in 10.0 mi West 13.8 mph - N/A   Partly Cloudy
3:55 PM 57.2 °F 51.8 °F 82% 30.06 in 10.0 mi West 11.5 mph - N/A   Scattered Clouds
4:15 PM 55.4 °F 51.8 °F 88% 30.06 in 10.0 mi West 10.4 mph - N/A   Overcast
4:35 PM 55.4 °F 51.8 °F 88% 30.06 in 10.0 mi West 8.1 mph - N/A   Overcast
4:55 PM 55.4 °F 51.8 °F 88% 30.06 in 10.0 mi WSW 6.9 mph - N/A   Overcast
5:15 PM 55.4 °F 51.8 °F 88% 30.06 in 10.0 mi WSW 5.8 mph - N/A   Overcast
5:35 PM 55.4 °F 51.8 °F 88% 30.07 in 10.0 mi WSW 3.5 mph - N/A   Overcast
5:55 PM 55.4 °F 51.8 °F 88% 30.07 in 10.0 mi Calm Calm - N/A   Overcast
6:15 PM 55.4 °F 51.8 °F 88% 30.06 in 10.0 mi Calm Calm - N/A   Overcast
6:35 PM 55.4 °F 51.8 °F 88% 30.06 in 10.0 mi Calm Calm - N/A   Overcast
6:55 PM 55.4 °F 51.8 °F 88% 30.06 in 10.0 mi South 5.8 mph - N/A   Overcast
7:15 PM 55.4 °F 51.8 °F 88% 30.06 in 10.0 mi SSE 6.9 mph - N/A   Overcast
7:35 PM 53.6 °F 51.8 °F 94% 30.06 in 10.0 mi SSE 4.6 mph - N/A   Overcast
7:55 PM 53.6 °F 51.8 °F 94% 30.06 in 10.0 mi SE 4.6 mph - N/A   Overcast
8:15 PM 53.6 °F 50.0 °F 88% 30.07 in 10.0 mi SE 4.6 mph - N/A   Partly Cloudy
8:55 PM 51.8 °F 50.0 °F 94% 30.07 in 10.0 mi SSE 3.5 mph - N/A   Clear
9:35 PM 51.8 °F 50.0 °F 94% 30.08 in 10.0 mi SSE 4.6 mph - N/A   Overcast
9:55 PM 53.6 °F 51.8 °F 94% 30.09 in 10.0 mi SSE 4.6 mph - N/A   Overcast
10:15 PM 53.6 °F 51.8 °F 94% 30.08 in 10.0 mi SE 6.9 mph - N/A   Overcast
10:35 PM 53.6 °F 51.8 °F 94% 30.08 in 10.0 mi SE 6.9 mph - N/A   Overcast
10:55 PM 53.6 °F 51.8 °F 94% 30.08 in 10.0 mi SSE 4.6 mph - N/A   Overcast
11:15 PM 53.6 °F 50.0 °F 88% 30.08 in 10.0 mi SSE 5.8 mph - N/A   Overcast
11:55 PM 53.6 °F 51.8 °F 94% 30.08 in 10.0 mi SE 6.9 mph - N/A   Overcast